Preview of NWS' New Version of Forecast
This preview is not operational and should not be used for support decisions.

Regional Weather Roundup (RWR)

Issued by National Weather Service (NWS)

                            
000
ASUS45 KBOI 181710
RWRID 

IDAHO REGIONAL WEATHER ROUNDUP
NATIONAL WEATHER SERVICE BOISE ID
1000 AM MST MON FEB 18 2019

NOTE: "FAIR" INDICATES FEW OR NO CLOUDS BELOW 12000 FEET
WITH NO SIGNIFICANT WEATHER AND/OR OBSTRUCTIONS TO VISIBILITY

IDZ012-014-181800-
SOUTHWEST IDAHO

  
CITY           SKY/WX    TMP DP  RH WIND       PRES   REMARKS
BOISE          CLOUDY    29  23  78 NW6       30.14R WCI  23          
CALDWELL       CLOUDY    31  22  69 W15       30.18R WCI  20          
MOUNTAIN HOME  SUNNY     30  30 100 NW21        N/A  WCI  17          
$$

IDZ016-017-181800-
SOUTHCENTRAL IDAHO

  
CITY           SKY/WX    TMP DP  RH WIND       PRES   REMARKS
BURLEY         CLOUDY    21  16  81 CALM      30.05R                  
JEROME         CLOUDY    23  21  92 SW10      30.06S FOG     WCI  12  
TWIN FALLS     CLOUDY    22  20  92 W15       30.06R WCI   9          
$$

IDZ019>023-181800-
SOUTHEAST IDAHO

  
CITY           SKY/WX    TMP DP  RH WIND       PRES   REMARKS
IDAHO FALLS    SUNNY      2  -1  88 CALM      30.03R                  
POCATELLO      MOSUNNY   16  10  77 W8        30.06R WCI   5          
REXBURG        SUNNY      8  -1  66 NE5       30.01R WCI   0          
$$

IDZ006-010-011-018-031-032-181800-
CENTRAL IDAHO MOUNTAINS

  
CITY           SKY/WX    TMP DP  RH WIND       PRES   REMARKS
MCCALL         MOSUNNY   16   9  74 NW8       30.03R WCI   5          
HAILEY         CLOUDY     9   1  72 W5        30.01R WCI   0          
STANLEY          N/A      6   1  80 CALM      29.94F                  
SALMON         CLOUDY    17  11  77 CALM      30.09R                  
CHALLIS        PTSUNNY   16   7  67 CALM      29.99S                  
$$

IDZ002-004-006-007-026-181800-
NORTHERN IDAHO

  
CITY           SKY/WX    TMP DP  RH WIND       PRES   REMARKS
LEWISTON       SUNNY     24  10  55 W3        30.34S                  
LOWELL           N/A     28  17  63 SE6       30.33  WCI  22          
COEUR D'ALENE  MOSUNNY   15   6  67 NE5       30.30S WCI   8          
MULLAN PASS    MOSUNNY    3   0  87 VRB3      29.97R                  
$$